User: anonymous   Login
Location: Newark
(15.4608°S, 41.1635°W)
Time: 14:39:20
(UTC+00:00)
Language:

Envisat - Orbit

View from above orbital plane
View from above orbital plane
View from above satellite
View from above satellite

Ground track
Ground track

The orbit data is extracted from the following two-line orbital elements,

1 27386U 02009A   21206.98483583  .00000035  00000-0  24920-4 0  9995
2 27386  98.1499 199.0772 0001392  89.8956 280.8161 14.38034876 16549
Epoch (UTC): 25 July 2021 23:38:09
Eccentricity: 0.0001392
inclination: 98.1499°
perigee height: 764 km
apogee height: 766 km
right ascension of ascending node: 199.0772°
argument of perigee: 89.8956°
revolutions per day: 14.38034876
mean anomaly at epoch: 280.8161°
orbit number at epoch: 1654

The dashed part of the orbit path shows where the satellite is in the earth's shadow,  

DLR